GW1237 Weather Reports


time (UTC)temp
F
wind
direction
speed
knots
gust
knots
rain 1hr
in
rain 24hr
in
rain mn
in
humidity
%
barometer
mb
20260504110438 40 16 0.0 0.0 0.00 0.00 0.00 93 1008.6
20260504100355 38 16 0.0 0.0 0.00 0.00 0.00 95 1008.3
20260504081748 44 15 0.0 0.0 0.00 0.00 0.00 88 1008.7
20260504081245 45 15 0.0 0.0 0.00 0.00 0.00 89 1009.0
20260504080741 45 15 0.0 0.0 0.00 0.00 0.00 86 1008.8
20260504080238 45 15 0.0 0.9 0.00 0.00 0.00 86 1008.9
20260504070205 46 15 0.0 0.9 0.00 0.00 0.00 83 1009.3
20260504060126 47 15 0.0 0.0 0.00 0.00 0.00 78 1009.2
20260504050554 46 15 0.0 0.9 0.00 0.00 0.00 78 1009.1
20260504045548 46 15 0.9 0.9 0.00 0.00 0.00 76 1009.4
20260504045043 46 15 0.0 0.0 0.00 0.00 0.00 77 1009.4
20260504044541 46 15 0.0 0.0 0.00 0.00 0.00 77 1009.4
20260504044037 46 15 0.0 0.0 0.00 0.00 0.00 78 1009.5
20260504043534 46 15 0.0 0.0 0.00 0.00 0.00 79 1009.6
20260504043032 46 15 0.0 0.0 0.00 0.00 0.00 74 1009.7
20260504042529 46 15 0.0 0.0 0.00 0.00 0.00 72 1009.7
20260504042026 46 15 0.0 0.0 0.00 0.00 0.00 71 1009.6
20260504041522 46 15 0.0 0.0 0.00 0.00 0.00 75 1009.7
20260504041018 46 15 0.0 0.0 0.00 0.00 0.00 76 1009.5
20260504040516 46 15 0.0 0.0 0.00 0.00 0.00 77 1009.5
20260504040012 45 15 0.0 0.0 0.00 0.00 0.00 79 1009.3
20260504035509 45 15 0.0 0.0 0.00 0.00 0.00 81 1009.4
20260504035005 44 15 0.0 0.0 0.00 0.00 0.00 75 1009.5
20260504034503 44 15 0.0 0.0 0.00 0.00 0.00 76 1009.4
20260504034000 44 15 0.0 0.0 0.00 0.00 0.00 78 1009.5
20260504033457 45 15 0.0 0.9 0.00 0.00 0.00 85 1009.5
20260504032955 45 15 0.0 0.0 0.00 0.00 0.00 79 1009.3
20260504032451 44 15 0.0 0.0 0.00 0.00 0.00 74 1009.4
20260504031948 44 15 0.0 0.0 0.00 0.00 0.00 84 1009.3
20260504031445 44 15 0.0 0.0 0.00 0.00 0.00 84 1009.3
20260504030942 44 15 0.9 0.9 0.00 0.00 0.00 83 1009.2
20260504030439 43 15 0.0 0.9 0.00 0.00 0.00 79 1009.2
20260504025935 43 15 0.0 0.0 0.00 0.00 0.00 80 1009.4
20260504025432 43 15 0.0 0.0 0.00 0.00 0.00 81 1009.1
20260504024929 43 15 0.0 0.0 0.00 0.00 0.00 78 1009.1
20260504024426 43 15 0.0 0.0 0.00 0.00 0.00 75 1009.2
20260504023923 44 15 0.0 0.0 0.00 0.00 0.00 76 1009.2
20260504023419 44 15 0.0 0.0 0.00 0.00 0.00 71 1009.2
20260504022915 44 15 0.0 0.0 0.00 0.00 0.00 73 1009.3
20260504022411 44 15 0.0 0.0 0.00 0.00 0.00 72 1009.1
20260504021908 45 15 0.0 0.0 0.00 0.00 0.00 72 1009.0
20260504021406 44 15 0.0 0.0 0.00 0.00 0.00 66 1009.2
20260504020903 44 15 0.0 0.0 0.00 0.00 0.00 67 1009.2
20260504020359 45 15 0.0 0.0 0.00 0.00 0.00 70 1009.4
20260504015855 46 15 0.0 0.0 0.00 0.00 0.00 60 1009.2
20260504015351 46 15 0.0 0.0 0.00 0.00 0.00 56 1009.3
20260504014848 44 15 0.0 0.0 0.00 0.00 0.00 58 1009.2
20260504014343 43 15 0.0 0.0 0.00 0.00 0.00 60 1009.3
20260504013841 43 15 0.0 0.0 0.00 0.00 0.00 67 1009.2
20260504013339 43 15 0.0 0.0 0.00 0.00 0.00 65 1009.0
20260504012836 44 15 0.0 0.9 0.00 0.00 0.00 69 1008.9
20260504012334 44 15 0.0 0.0 0.00 0.00 0.00 58 1009.0
20260504011831 44 15 0.0 0.0 0.00 0.00 0.00 58 1008.9
20260504011327 44 15 0.0 0.0 0.00 0.00 0.00 59 1008.9
20260504010823 45 15 0.0 0.0 0.00 0.00 0.00 58 1008.7
20260504010319 45 15 0.0 0.0 0.00 0.00 0.00 54 1008.5
20260504005815 46 15 0.0 0.0 0.00 0.00 0.00 52 1008.7
20260504005313 45 15 0.0 0.9 0.00 0.00 0.00 53 1008.6
20260504004810 46 15 0.0 0.0 0.00 0.00 0.00 56 1008.4
20260504004308 46 15 0.0 0.0 0.00 0.00 0.00 54 1008.5
20260504003804 46 15 0.0 0.0 0.00 0.00 0.00 54 1008.3
20260504003301 47 15 0.0 0.0 0.00 0.00 0.00 53 1008.2
20260504002757 47 15 0.0 0.0 0.00 0.00 0.00 54 1008.4
20260504002254 47 15 0.0 0.0 0.00 0.00 0.00 54 1008.2
20260504001752 47 15 0.0 0.0 0.00 0.00 0.00 56 1007.9
20260504001249 47 15 0.0 0.0 0.00 0.00 0.00 54 1007.9
20260504000746 46 15 0.9 0.9 0.00 0.00 0.00 55 1007.8
20260504000243 46 15 0.0 0.0 0.00 0.00 0.00 57 1007.8
20260503235741 46 15 0.0 0.0 0.00 0.00 0.00 61 1007.7
20260503235237 47 15 0.0 0.0 0.00 0.00 0.00 62 1007.5
20260503234735 48 15 0.0 0.0 0.00 0.00 0.00 60 1007.3
20260503234233 48 15 0.0 0.0 0.00 0.00 0.00 59 1007.3
20260503233730 49 15 0.9 0.9 0.00 0.00 0.00 59 1007.1
20260503233226 51 15 0.0 0.9 0.00 0.00 0.00 60 1007.0
20260503232723 52 15 0.0 0.0 0.00 0.00 0.00 58 1007.0
20260503232220 52 16 0.0 0.0 0.00 0.00 0.00 43 1007.1
20260503231719 52 16 0.9 0.9 0.00 0.00 0.00 44 1006.7
20260503231215 52 15 0.0 0.0 0.00 0.00 0.00 46 1006.9
20260503230711 52 15 0.0 0.9 0.00 0.00 0.00 44 1006.8
20260503230208 52 15 0.9 1.7 0.00 0.00 0.00 43 1006.7
20260503225705 52 16 0.0 0.9 0.00 0.00 0.00 46 1006.8
20260503225200 53 16 3.5 4.3 0.00 0.00 0.00 44 1006.7
20260503224657 53 344 0.9 0.9 0.00 0.00 0.00 41 1006.7
20260503224155 53 345 0.9 0.9 0.00 0.00 0.00 40 1006.6
20260503223653 53 345 1.7 1.7 0.00 0.00 0.00 40 1006.6
20260503223149 53 357 0.0 0.9 0.00 0.00 0.00 41 1006.7
20260503222646 53 341 2.6 2.6 0.00 0.00 0.00 39 1006.6
20260503222144 53 324 0.0 0.9 0.00 0.00 0.00 41 1006.9
20260503221642 53 324 0.9 0.9 0.00 0.00 0.00 41 1006.6
20260503221139 53 326 0.9 1.7 0.00 0.00 0.00 42 1006.6
20260503220636 53 210 0.0 0.0 0.00 0.00 0.00 40 1006.7
20260503220132 54 267 0.0 0.0 0.00 0.00 0.00 41 1006.8
20260503215630 54 250 0.9 1.7 0.00 0.00 0.00 43 1006.5
20260503215126 54 353 0.9 0.9 0.00 0.00 0.00 43 1006.7
20260503214625 54 5 0.9 0.9 0.00 0.00 0.00 43 1007.0
20260503214121 54 339 2.6 4.3 0.00 0.00 0.00 43 1006.7
20260503213620 54 307 0.9 1.7 0.00 0.00 0.00 42 1006.7
20260503213116 54 290 2.6 2.6 0.00 0.00 0.00 41 1006.9
20260503212614 54 279 3.5 4.3 0.00 0.00 0.00 40 1007.0
20260503212111 55 352 3.5 4.3 0.00 0.00 0.00 39 1007.0
20260503211609 55 305 0.9 0.9 0.00 0.00 0.00 43 1006.9
20260503211103 55 293 2.6 4.3 0.00 0.00 0.00 42 1006.8
20260503210600 54 284 1.7 1.7 0.00 0.00 0.00 43 1006.8
20260503210056 52 267 2.6 2.6 0.00 0.00 0.00 46 1006.9
20260503205553 52 267 1.7 2.6 0.00 0.00 0.00 48 1007.0
20260503205049 52 328 0.0 0.9 0.00 0.00 0.00 46 1007.2
20260503204546 52 335 1.7 2.6 0.00 0.00 0.00 44 1007.3
20260503204043 52 335 1.7 1.7 0.00 0.00 0.00 46 1007.1
20260503203541 52 305 2.6 2.6 0.00 0.00 0.00 44 1007.3
20260503203038 52 18 3.5 4.3 0.00 0.00 0.00 44 1007.2
20260503202536 52 290 1.7 1.7 0.00 0.00 0.00 46 1007.3
20260503202033 53 330 1.7 1.7 0.00 0.00 0.00 45 1007.3
20260503201531 52 354 3.5 4.3 0.00 0.00 0.00 47 1007.5
20260503201028 52 263 2.6 4.3 0.00 0.00 0.00 46 1007.4
20260503200524 51 340 3.5 4.3 0.00 0.00 0.00 46 1007.5
20260503200015 51 241 1.7 1.7 0.00 0.00 0.00 47 1007.7
20260503195513 52 291 3.5 4.3 0.00 0.00 0.00 47 1007.7
20260503195009 52 289 0.9 0.9 0.00 0.00 0.00 49 1007.6
20260503194507 51 255 0.0 0.9 0.00 0.00 0.00 52 1007.5
20260503194006 51 255 0.9 0.9 0.00 0.00 0.00 46 1007.7
20260503193503 51 272 2.6 2.6 0.00 0.00 0.00 50 1008.0
20260503192958 51 276 2.6 2.6 0.00 0.00 0.00 49 1008.0
20260503192454 51 255 0.9 0.9 0.00 0.00 0.00 49 1008.1
20260503191950 51 246 1.7 1.7 0.00 0.00 0.00 50 1008.1
20260503191448 51 281 2.6 2.6 0.00 0.00 0.00 50 1008.1
20260503190943 50 271 1.7 1.7 0.00 0.00 0.00 49 1008.2
20260503190442 51 298 5.2 6.1 0.00 0.00 0.00 46 1008.1
20260503185939 51 312 0.9 1.7 0.00 0.00 0.00 51 1008.2
20260503185435 51 254 2.6 4.3 0.00 0.00 0.00 52 1008.3
20260503184934 51 296 1.7 1.7 0.00 0.00 0.00 47 1008.3
20260503184431 50 263 2.6 2.6 0.00 0.00 0.00 47 1008.2
20260503183927 49 359 2.6 2.6 0.00 0.00 0.00 50 1008.4
20260503183424 49 25 2.6 2.6 0.00 0.00 0.00 50 1008.5
20260503182921 50 347 3.5 4.3 0.00 0.00 0.00 48 1008.2
20260503182420 51 14 7.0 7.8 0.00 0.00 0.00 47 1008.3
20260503181917 51 280 0.9 1.7 0.00 0.00 0.00 49 1008.3
20260503181414 50 351 2.6 4.3 0.00 0.00 0.00 50 1008.5
20260503180910 50 277 0.9 0.9 0.00 0.00 0.00 54 1008.5
20260503180408 49 295 1.7 1.7 0.00 0.00 0.00 50 1008.4
20260503175904 49 332 2.6 2.6 0.00 0.00 0.00 49 1008.6
20260503175403 49 4 5.2 7.0 0.00 0.00 0.00 51 1008.7
20260503174858 49 326 1.7 1.7 0.00 0.00 0.00 50 1008.5
20260503174357 48 1 6.1 6.1 0.00 0.00 0.00 52 1008.5
20260503173857 49 357 5.2 6.1 0.00 0.00 0.00 51 1008.6
20260503173353 49 16 3.5 4.3 0.00 0.00 0.00 52 1008.6
20260503172850 49 14 6.1 8.7 0.00 0.00 0.00 48 1008.8
20260503172348 50 357 5.2 6.1 0.00 0.00 0.00 50 1008.7
20260503171843 49 327 1.7 1.7 0.00 0.00 0.00 48 1008.5
20260503171341 48 8 5.2 6.1 0.00 0.00 0.00 47 1008.7
20260503170838 49 9 5.2 6.1 0.00 0.00 0.00 49 1008.5
20260503170334 48 326 1.7 2.6 0.00 0.00 0.00 49 1008.7
20260503150727 48 28 9.6 12.2 0.00 0.00 0.00 57 1008.7
20260503150223 49 259 0.9 0.9 0.00 0.00 0.00 56 1008.7
20260503140147 47 334 1.7 2.6 0.00 0.00 0.00 67 1009.1
20260503131117 46 347 2.6 4.3 0.00 0.00 0.00 74 1009.3
20260503130614 45 303 2.6 2.6 0.00 0.00 0.00 75 1009.6
20260503130112 46 348 0.9 1.7 0.00 0.00 0.00 80 1009.3